Regional Weather Roundup
Issued by NWS

Home | Current Version | Previous Version | Graphics & Text | Print | Product List | Glossary On
Versions: 1 2 3 4 5 6 7 8 9 10 11 12 13 14 15 16 17 18 19 20 21 22 23 24 25 26 27 28 29 30 31 32 33 34 35 36 37 38 39 40 41 42 43 44 45 46 47 48 49 50
845
ASUS44 KLIX 261505
RWRLA
LOUISIANA WEATHER ROUNDUP
NATIONAL WEATHER SERVICE NEW ORLEANS LA
900 AM CST WED NOV 26 2014

NOTE: "FAIR" INDICATES FEW OR NO CLOUDS BELOW 12,000 FEET WITH NO
      SIGNIFICANT WEATHER AND/OR OBSTRUCTIONS TO VISIBILITY.
      SKY/WX - SKY CONDITION AND SIGNIFICANT WEATHER.
      TMP - AIR TEMPERATURE.    DP   - DEWPOINT TEMPERATURE.
      RH  - RELATIVE HUMIDITY.  PRES - PRESSURE.
      HX  - HEAT INDEX.         WCI  - WIND CHILL INDEX.

*  THESE STATIONS ARE NOT NWS OR FAA STATIONS AND ARE NOT UNDER
   NWS QUALITY CONTROL.

LAZ040-048-061>063-065-066-069-261600-
SOUTHEAST LOUISIANA

CITY           SKY/WX    TMP DP  RH WIND       PRES   REMARKS
N.O. AUDUBON     N/A     53  40  61 MISG        N/A
N.O. INTL ARPT MOSUNNY   51  40  65 S7        30.29R
N.O. LAKEFRONT SUNNY     52  37  56 S6        30.30R
N.O. DOWNTOWN* FAIR      52  36  54 S3        30.29S
SLIDELL        SUNNY     48  34  58 CALM      30.29R
BATON ROUGE    SUNNY     50  38  63 S6        30.27R
BOOTHVILLE     SUNNY     53  37  54 N3        30.31R
BELLE CHASSE   SUNNY     52  37  56 S3        30.29R
BOGALUSA*        N/A     45  35  68 CALM      30.30R
NEW ROADS*     FAIR      48  41  75 S5        30.26S
GONZALES*      FAIR      50  40  67 SE3       30.28S
HAMMOND*       SUNNY     46  37  71 CALM      30.30S
HOUMA*         NOT AVBL
PORT FOURCHON* SUNNY     54  36  50 NE3       30.33S

$$

LAZ041-044-053-054-261600-
SOUTHWEST LOUISIANA

CITY           SKY/WX    TMP DP  RH WIND       PRES   REMARKS
LAKE CHARLES   SUNNY     59  51  75 SW6       30.24S
LAFAYETTE      SUNNY     55  45  68 S7        30.25F
PATTERSON      SUNNY     54  46  76 SW5         N/A
SALT POINT       N/A     62  47  57 VRB3      30.28R
NEW IBERIA     SUNNY     55  50  83 S3        30.27S
CHENAULT AIRPK SUNNY     54  50  87 S7        30.24S

$$

LAZ027-028-261600-
CENTRAL LOUISIANA

CITY           SKY/WX    TMP DP  RH WIND       PRES   REMARKS
FORT POLK      SUNNY     51  42  72 SW9       30.20S
ALEXANDRIA INT SUNNY     53  42  66 SW10      30.19S
ALEXANDRIA     SUNNY     51  43  74 SW8       30.20F

$$

LAZ001-002-261600-
NORTHWEST LOUISIANA

CITY           SKY/WX    TMP DP  RH WIND       PRES   REMARKS
SHREVEPORT     MOSUNNY   52  34  50 SW12      30.11R
BARKSDALE AFB  SUNNY     52  34  49 SW13      30.12R
DTN SHREVEPORT SUNNY     52  32  46 SW12      30.12R

$$

LAZ014-016-261600-
NORTHEAST LOUISIANA

CITY           SKY/WX    TMP DP  RH WIND       PRES   REMARKS
MONROE         SUNNY     47  39  74 SW8       30.18R HAZE
TALLULAH       SUNNY     46  36  68 S7        30.20S

$$




USA.gov is the U.S. government's official web portal to all federal, state and local government web resources and services.